Location: Jackson Park
(37.2862°N, 79.9123°W)
Time: 02:05:18
(UTC+00:00)

Tiros 1 despin weight - Pass Details

Date: 19 May 2026
Orbit: 554 x 591 km, 48.2° (Epoch: 6 June)

Event Time Altitude Azimuth Distance (km) Brightness Sun altitude
Rises 08:49:46 0° 244° (WSW) 2,769 - -13.9°
Reaches altitude 10° 08:52:04 10° 247° (WSW) 1,867 - -13.6°
Exits shadow 08:53:27 20° 252° (WSW) 1,342 ? -13.4°
Maximum altitude 08:56:18 62° 329° (NNW) 636 ? -12.9°
Drops below altitude 10° 09:00:30 10° 51° (NE) 1,852 ? -12.3°
Sets 09:02:46 0° 54° (NE) 2,745 ? -11.9°
